Location: *
(52.2090°N, 4.1550°W)
Time: 11:43:23
(UTC+00:00)

ASTEX 1 - Pass Details

Date: 19 July 2019
Orbit: 722 x 742 km, 92.7° (Epoch: 20 August)

Event Time Altitude Azimuth Distance (km) Brightness Sun altitude
Rises 21:47:32 0° 10° (N) 3,191 7.4 -9.6°
Reaches altitude 10° 21:49:59 10° 18° (NNE) 2,265 6.5 -9.8°
Maximum altitude 21:54:41 40° 88° (E) 1,097 4.1 -10.2°
Enters shadow 21:58:40 14° 154° (SSE) 2,001 5.0 -10.5°
